This is the latest recevied weather packets stored in our database for station/object KC3QLX. If no packets are shown the sender has not sent any weather packets the latest 10 day(s).
| Time | Temp. | Humidity | Pressure | Rain* | Wind** | Luminosity | Snow |
|---|---|---|---|---|---|---|---|
| 1777995958 | 25° C | 51% | 1009.6 hPa | 0 mm | - | 761 W/m² | - |
| 1777995655 | 25° C | 49% | 1009.9 hPa | 0 mm | - | 799 W/m² | - |
| 1777995352 | 25° C | 50% | 1009.7 hPa | 0 mm | - | 820 W/m² | - |
| 1777995050 | 25° C | 52% | 1009.7 hPa | 0 mm | - | 780 W/m² | - |
| 1777994746 | 24.44° C | 49% | 1009.7 hPa | 0 mm | - | 818 W/m² | - |
| 1777994442 | 24.44° C | 50% | 1009.9 hPa | 0 mm | - | 797 W/m² | - |
| 1777994137 | 23.89° C | 53% | 1009.7 hPa | 0 mm | - | 805 W/m² | - |
| 1777993835 | 23.89° C | 53% | 1009.6 hPa | 0 mm | - | 812 W/m² | - |
| 1777993531 | 23.89° C | 51% | 1010 hPa | 0 mm | - | 853 W/m² | - |
| 1777993227 | 23.89° C | 56% | 1009.9 hPa | 0 mm | - | 848 W/m² | - |
| 1777992923 | 23.89° C | 54% | 1010 hPa | 0 mm | - | 805 W/m² | - |
| 1777992622 | 23.89° C | 54% | 1010.3 hPa | 0 mm | - | 758 W/m² | - |
| 1777992320 | 23.33° C | 54% | 1010 hPa | 0 mm | - | 768 W/m² | - |
| 1777992016 | 22.78° C | 56% | 1009.9 hPa | 0 mm | - | 779 W/m² | - |
| 1777991714 | 22.78° C | 58% | 1010 hPa | 0 mm | - | 725 W/m² | - |
| 1777991411 | 22.22° C | 57% | 1010.1 hPa | 0 mm | - | 717 W/m² | - |
| 1777991108 | 22.22° C | 56% | 1010.2 hPa | 0 mm | - | 678 W/m² | - |
| 1777990805 | 22.22° C | 58% | 1010.2 hPa | 0 mm | - | 712 W/m² | - |
| 1777990503 | 22.22° C | 61% | 1010.2 hPa | 0 mm | - | 704 W/m² | - |
| 1777989896 | 21.67° C | 62% | 1010.2 hPa | 0 mm | - | 666 W/m² | - |
| 1777989592 | 21.11° C | 63% | 1010.3 hPa | 0 mm | - | 652 W/m² | - |
| 1777989289 | 20.56° C | 62% | 1010.2 hPa | 0 mm | - | 629 W/m² | - |
| 1777988985 | 20.56° C | 66% | 1010.5 hPa | 0 mm | - | 612 W/m² | - |
| 1777988682 | 20.56° C | 66% | 1010.3 hPa | 0 mm | - | 590 W/m² | - |
| 1777988379 | 20° C | 73% | 1010.5 hPa | 0 mm | - | 575 W/m² | - |
* Rain latest hour (hover to see other rain measurements)
** Current wind speed in m/s (hover to see current wind gust speed)